UTA9471 UUWW-UWKD

Flight info

Callsign UTA9471
Flight time 1h 10m
Altitude 39000
Route KOGOM3D KOGOM L94 EKPIR M864 INKEB L94 UNORO T788 KOROM KOROM1T
Aircraft B752/M-SDFGHIRWY/LB1

Departure

Time 2026-05-07 16:45
Airport Vnukovo International Airport (UUWW)

Arrival

Time 2026-05-07 17:55
Airport Kazan International Airport (UWKD)
Time Latitude Longitude Altitude Speed Heading
2026-05-07 15:35 55.60138 37.27751 691 ft 0 kts 64°
2026-05-07 16:38 55.60144 37.27774 691 ft 2 kts 65°
2026-05-07 16:38 55.60157 37.27822 691 ft 4 kts 67°
2026-05-07 16:38 55.60150 37.27869 691 ft 4 kts 131°
2026-05-07 16:38 55.60123 37.27919 691 ft 6 kts 134°
2026-05-07 16:39 55.60094 37.27982 691 ft 6 kts 121°
2026-05-07 16:39 55.60077 37.28064 691 ft 7 kts 101°
2026-05-07 16:39 55.60074 37.28154 691 ft 8 kts 86°
2026-05-07 16:39 55.60080 37.28270 691 ft 10 kts 86°
2026-05-07 16:40 55.60093 37.28409 691 ft 12 kts 68°
2026-05-07 16:40 55.60152 37.28537 691 ft 13 kts 45°
2026-05-07 16:40 55.60209 37.28641 691 ft 7 kts 55°
2026-05-07 16:40 55.60206 37.28704 691 ft 5 kts 123°
2026-05-07 16:41 55.60174 37.28769 691 ft 8 kts 132°
2026-05-07 16:41 55.60122 37.28850 691 ft 11 kts 149°
2026-05-07 16:41 55.60043 37.28893 691 ft 12 kts 166°
2026-05-07 16:41 55.59973 37.28924 691 ft 5 kts 166°
2026-05-07 16:42 55.59941 37.28937 691 ft 0 kts 166°
2026-05-07 16:42 55.59941 37.28938 691 ft 0 kts 166°
2026-05-07 16:42 55.59938 37.28939 691 ft 0 kts 166°
2026-05-07 16:43 55.59924 37.28945 691 ft 4 kts 166°
2026-05-07 16:43 55.59889 37.28960 691 ft 5 kts 166°
2026-05-07 16:44 55.59846 37.28978 691 ft 6 kts 167°
2026-05-07 16:44 55.59801 37.28968 691 ft 7 kts 216°
2026-05-07 16:44 55.59766 37.28862 691 ft 14 kts 248°
2026-05-07 16:44 55.59650 37.28345 692 ft 88 kts 248°
2026-05-07 16:45 55.59307 37.26836 733 ft 168 kts 249°
2026-05-07 16:45 55.58854 37.24674 1342 ft 204 kts 250°
2026-05-07 16:45 55.58441 37.22343 2587 ft 200 kts 252°
2026-05-07 16:45 55.57755 37.20438 3812 ft 185 kts 226°
2026-05-07 16:46 55.56917 37.18932 4896 ft 172 kts 230°
2026-05-07 16:46 55.56125 37.17267 5456 ft 189 kts 232°
2026-05-07 16:46 55.55307 37.15385 6217 ft 196 kts 238°
2026-05-07 16:46 55.54921 37.13010 6789 ft 216 kts 264°
2026-05-07 16:47 55.54891 37.10262 6990 ft 233 kts 265°
2026-05-07 16:47 55.54890 37.07411 6999 ft 229 kts 273°
2026-05-07 16:47 55.55470 37.04834 7053 ft 236 kts 304°
2026-05-07 16:47 55.56829 37.03061 7059 ft 254 kts 334°
2026-05-07 16:48 55.58619 37.02613 7028 ft 262 kts 355°
2026-05-07 16:48 55.60429 37.02645 7002 ft 263 kts 356°
2026-05-07 16:48 55.62219 37.03413 7027 ft 272 kts 27°
2026-05-07 16:48 55.63687 37.05715 7002 ft 300 kts 57°
2026-05-07 16:49 55.64502 37.09136 7038 ft 310 kts 82°
2026-05-07 16:49 55.64529 37.12905 7006 ft 301 kts 98°
2026-05-07 16:49 55.64398 37.16560 7006 ft 302 kts 95°
2026-05-07 16:49 55.64212 37.20191 7015 ft 297 kts 108°
2026-05-07 16:50 55.63602 37.23649 7013 ft 297 kts 112°
2026-05-07 16:50 55.62975 37.27101 7017 ft 299 kts 111°
2026-05-07 16:50 55.62330 37.30645 7642 ft 306 kts 112°
2026-05-07 16:50 55.61711 37.34062 8847 ft 301 kts 111°
2026-05-07 16:51 55.61061 37.37593 9013 ft 316 kts 111°
2026-05-07 16:51 55.60390 37.41273 9024 ft 315 kts 111°
2026-05-07 16:51 55.59716 37.44933 9389 ft 333 kts 111°
2026-05-07 16:51 55.59030 37.48688 10503 ft 330 kts 111°
2026-05-07 16:52 55.58312 37.52573 11291 ft 339 kts 111°
2026-05-07 16:52 55.57622 37.56549 12178 ft 345 kts 104°
2026-05-07 16:52 55.57429 37.60763 12920 ft 357 kts 86°
2026-05-07 16:52 55.57965 37.65030 13790 ft 362 kts 68°
2026-05-07 16:53 55.59059 37.68752 14633 ft 364 kts 58°
2026-05-07 16:53 55.60368 37.72660 15450 ft 369 kts 59°
2026-05-07 16:53 55.61639 37.76529 16274 ft 373 kts 59°
2026-05-07 16:53 55.62919 37.80426 17103 ft 376 kts 59°
2026-05-07 16:54 55.63969 37.84663 17821 ft 382 kts 75°
2026-05-07 16:54 55.64349 37.89214 18592 ft 384 kts 91°
2026-05-07 16:54 55.64062 37.93778 19362 ft 384 kts 104°
2026-05-07 16:54 55.63501 37.98321 20081 ft 388 kts 104°
2026-05-07 16:55 55.62943 38.02855 20731 ft 393 kts 104°
2026-05-07 16:55 55.62350 38.07566 21515 ft 395 kts 104°
2026-05-07 16:55 55.61754 38.12252 22211 ft 399 kts 104°
2026-05-07 16:55 55.61144 38.17048 22879 ft 403 kts 104°
2026-05-07 16:56 55.60540 38.21816 23649 ft 404 kts 104°
2026-05-07 16:56 55.59922 38.26670 24185 ft 410 kts 103°
2026-05-07 16:56 55.58657 38.36545 25452 ft 417 kts 102°
2026-05-07 16:57 55.58314 38.41639 26077 ft 420 kts 89°
2026-05-07 16:57 55.58655 38.46747 26614 ft 423 kts 75°
2026-05-07 16:57 55.59556 38.51664 27130 ft 426 kts 64°
2026-05-07 16:57 55.60952 38.56246 27771 ft 425 kts 55°
2026-05-07 16:58 55.62529 38.60669 28242 ft 429 kts 56°
2026-05-07 16:58 55.64056 38.65134 28819 ft 430 kts 57°
2026-05-07 16:58 55.65614 38.69756 29264 ft 435 kts 58°
2026-05-07 16:58 55.67123 38.74280 29782 ft 437 kts 58°
2026-05-07 16:59 55.68642 38.78862 30206 ft 440 kts 58°
2026-05-07 16:59 55.70178 38.83523 30620 ft 444 kts 58°
2026-05-07 16:59 55.71719 38.88211 31154 ft 445 kts 58°
2026-05-07 16:59 55.73385 38.92795 31425 ft 449 kts 50°
2026-05-07 17:00 55.75409 38.96913 31875 ft 448 kts 44°
2026-05-07 17:00 55.77555 39.01004 32281 ft 451 kts 45°
2026-05-07 17:00 55.79675 39.05049 32714 ft 453 kts 44°
2026-05-07 17:00 55.81794 39.09075 33121 ft 454 kts 44°
2026-05-07 17:01 55.83893 39.13299 33747 ft 452 kts 50°
2026-05-07 17:01 55.85596 39.17918 34219 ft 454 kts 59°
2026-05-07 17:01 55.87040 39.22899 34678 ft 454 kts 60°
2026-05-07 17:01 55.88469 39.27909 35083 ft 452 kts 60°
2026-05-07 17:02 55.89878 39.32901 35366 ft 453 kts 60°
2026-05-07 17:02 55.91271 39.37873 35726 ft 451 kts 60°
2026-05-07 17:02 55.92662 39.42865 36048 ft 450 kts 61°
2026-05-07 17:02 55.94031 39.47798 36398 ft 448 kts 61°
2026-05-07 17:03 55.95398 39.52741 36626 ft 450 kts 61°
2026-05-07 17:03 55.96786 39.57775 36894 ft 447 kts 61°
2026-05-07 17:03 55.99524 39.67687 36881 ft 450 kts 60°
2026-05-07 17:04 56.02142 39.77993 36891 ft 463 kts 72°
2026-05-07 17:04 56.03009 39.89419 36885 ft 475 kts 87°
2026-05-07 17:05 56.03184 40.01338 36884 ft 484 kts 87°
2026-05-07 17:05 56.03349 40.13367 36873 ft 488 kts 87°
2026-05-07 17:06 56.03498 40.25457 36877 ft 488 kts 87°
2026-05-07 17:06 56.03634 40.37569 36877 ft 488 kts 87°
2026-05-07 17:07 56.03758 40.49631 36889 ft 490 kts 87°
2026-05-07 17:07 56.03870 40.61789 36877 ft 487 kts 88°
2026-05-07 17:08 56.03970 40.73855 36872 ft 488 kts 88°
2026-05-07 17:08 56.04056 40.85916 36866 ft 488 kts 89°
2026-05-07 17:09 56.04130 40.97866 36854 ft 489 kts 89°
2026-05-07 17:09 56.04192 41.09921 36861 ft 489 kts 89°
2026-05-07 17:10 56.04242 41.21796 36863 ft 489 kts 89°
2026-05-07 17:10 56.04281 41.33800 36866 ft 488 kts 89°
2026-05-07 17:11 56.04299 41.41004 36860 ft 486 kts 89°
2026-05-07 17:11 56.04317 41.51328 36861 ft 486 kts 89°
2026-05-07 17:12 56.04327 41.62488 36870 ft 485 kts 89°
2026-05-07 17:12 56.04327 41.74795 36861 ft 485 kts 90°
2026-05-07 17:13 56.04315 41.86574 36860 ft 483 kts 90°
2026-05-07 17:13 56.04291 41.98595 36865 ft 485 kts 90°
2026-05-07 17:14 56.04258 42.09811 36864 ft 483 kts 90°
2026-05-07 17:14 56.04213 42.21331 36867 ft 482 kts 90°
2026-05-07 17:15 56.04156 42.33259 36864 ft 482 kts 90°
2026-05-07 17:15 56.04088 42.45199 36860 ft 480 kts 90°
2026-05-07 17:16 56.03992 42.57186 36863 ft 480 kts 90°
2026-05-07 17:16 56.03849 42.69006 36858 ft 478 kts 91°
2026-05-07 17:17 56.03696 42.80754 36864 ft 475 kts 91°
2026-05-07 17:17 56.03536 42.92234 36863 ft 475 kts 91°
2026-05-07 17:18 56.03367 43.03579 36862 ft 477 kts 91°
2026-05-07 17:18 56.03211 43.13490 36862 ft 475 kts 91°
2026-05-07 17:20 56.03860 43.47953 36871 ft 475 kts 82°
2026-05-07 17:20 56.04639 43.59632 36882 ft 476 kts 81°
2026-05-07 17:21 56.05418 43.71369 36877 ft 474 kts 82°
2026-05-07 17:21 56.06184 43.83044 36880 ft 473 kts 82°
2026-05-07 17:22 56.06939 43.94721 36891 ft 474 kts 82°
2026-05-07 17:22 56.07690 44.06484 36891 ft 473 kts 82°
2026-05-07 17:23 56.08421 44.18116 36889 ft 475 kts 82°
2026-05-07 17:23 56.09149 44.29880 36888 ft 476 kts 82°
2026-05-07 17:24 56.09868 44.41699 36891 ft 477 kts 82°
2026-05-07 17:24 56.10571 44.53433 36896 ft 478 kts 82°
2026-05-07 17:25 56.11183 44.65304 36890 ft 480 kts 89°
2026-05-07 17:25 56.11022 44.77330 36896 ft 481 kts 91°
2026-05-07 17:26 56.10801 44.89248 36905 ft 482 kts 91°
2026-05-07 17:26 56.10552 45.01292 36903 ft 483 kts 92°
2026-05-07 17:27 56.10272 45.13361 36900 ft 483 kts 91°
2026-05-07 17:27 56.09994 45.25283 36907 ft 484 kts 91°
2026-05-07 17:28 56.09702 45.37353 36916 ft 481 kts 91°
2026-05-07 17:28 56.09400 45.49332 36920 ft 484 kts 91°
2026-05-07 17:29 56.09085 45.61338 36929 ft 483 kts 91°
2026-05-07 17:29 56.08760 45.73318 36927 ft 481 kts 92°
2026-05-07 17:30 56.08596 45.79174 36905 ft 470 kts 92°
2026-05-07 17:30 56.08432 45.84931 36880 ft 455 kts 92°
2026-05-07 17:30 56.08273 45.90448 36466 ft 451 kts 92°
2026-05-07 17:30 56.08107 45.96064 35866 ft 450 kts 91°
2026-05-07 17:31 56.07943 46.01604 35428 ft 446 kts 91°
2026-05-07 17:31 56.07776 46.07122 34831 ft 446 kts 91°
2026-05-07 17:31 56.07608 46.12653 33899 ft 450 kts 91°
2026-05-07 17:31 56.07435 46.18304 33044 ft 451 kts 91°
2026-05-07 17:32 56.07260 46.23869 32115 ft 455 kts 92°
2026-05-07 17:32 56.07081 46.29495 31091 ft 460 kts 92°
2026-05-07 17:32 56.06895 46.35234 30134 ft 462 kts 93°
2026-05-07 17:32 56.06707 46.40926 29406 ft 453 kts 93°
2026-05-07 17:33 56.06512 46.46492 28825 ft 451 kts 95°
2026-05-07 17:33 56.05999 46.52050 28276 ft 456 kts 104°
2026-05-07 17:33 56.05027 46.57453 27665 ft 458 kts 110°
2026-05-07 17:33 56.03949 46.62704 27048 ft 451 kts 110°
2026-05-07 17:34 56.02861 46.67947 26433 ft 444 kts 112°
2026-05-07 17:34 56.01785 46.73058 25835 ft 439 kts 112°
2026-05-07 17:34 56.00715 46.78088 25264 ft 435 kts 112°
2026-05-07 17:34 55.99637 46.83120 24697 ft 431 kts 112°
2026-05-07 17:35 55.98569 46.88088 24145 ft 428 kts 112°
2026-05-07 17:35 55.97513 46.92983 23826 ft 415 kts 112°
2026-05-07 17:35 55.96492 46.97699 23625 ft 399 kts 112°
2026-05-07 17:35 55.95522 47.02172 23517 ft 379 kts 112°
2026-05-07 17:36 55.94581 47.06497 23383 ft 366 kts 113°
2026-05-07 17:36 55.93663 47.10702 22869 ft 364 kts 113°
2026-05-07 17:36 55.92756 47.14848 22392 ft 361 kts 113°
2026-05-07 17:36 55.91843 47.19018 21859 ft 360 kts 113°
2026-05-07 17:37 55.90935 47.23156 21417 ft 357 kts 112°
2026-05-07 17:37 55.90034 47.27255 20944 ft 354 kts 113°
2026-05-07 17:37 55.89142 47.31306 20441 ft 353 kts 112°
2026-05-07 17:37 55.88242 47.35385 19995 ft 350 kts 112°
2026-05-07 17:38 55.87353 47.39409 19517 ft 349 kts 112°
2026-05-07 17:38 55.86473 47.43381 19092 ft 345 kts 112°
2026-05-07 17:38 55.85614 47.47258 18936 ft 329 kts 112°
2026-05-07 17:38 55.84777 47.51018 18969 ft 333 kts 112°
2026-05-07 17:39 55.83905 47.54926 18964 ft 349 kts 112°
2026-05-07 17:39 55.82997 47.58997 18950 ft 348 kts 112°
2026-05-07 17:39 55.82109 47.62972 18954 ft 344 kts 112°
2026-05-07 17:39 55.81232 47.66888 18954 ft 345 kts 113°
2026-05-07 17:40 55.80336 47.70881 18952 ft 346 kts 113°
2026-05-07 17:40 55.79458 47.74788 18934 ft 334 kts 113°
2026-05-07 17:40 55.78613 47.78545 18455 ft 324 kts 113°
2026-05-07 17:40 55.77791 47.82185 17859 ft 317 kts 113°
2026-05-07 17:41 55.76967 47.85832 17139 ft 314 kts 113°
2026-05-07 17:41 55.76163 47.89383 16414 ft 311 kts 112°
2026-05-07 17:41 55.75368 47.92894 15751 ft 306 kts 112°
2026-05-07 17:41 55.74580 47.96362 15044 ft 303 kts 112°
2026-05-07 17:42 55.73795 47.99813 14360 ft 300 kts 112°
2026-05-07 17:42 55.73017 48.03228 13646 ft 297 kts 111°
2026-05-07 17:42 55.72255 48.06571 13023 ft 292 kts 111°
2026-05-07 17:42 55.71503 48.09864 12341 ft 289 kts 111°
2026-05-07 17:43 55.70750 48.13152 11666 ft 286 kts 111°
2026-05-07 17:43 55.70016 48.16356 11181 ft 274 kts 111°
2026-05-07 17:43 55.69306 48.19449 10923 ft 275 kts 111°
2026-05-07 17:43 55.68578 48.22617 10482 ft 280 kts 111°
2026-05-07 17:44 55.67853 48.25767 10194 ft 277 kts 110°
2026-05-07 17:44 55.67127 48.28887 9848 ft 276 kts 114°
2026-05-07 17:44 55.66031 48.31672 9483 ft 276 kts 132°
2026-05-07 17:44 55.64695 48.34120 9148 ft 275 kts 133°
2026-05-07 17:45 55.63374 48.36546 8788 ft 274 kts 133°
2026-05-07 17:45 55.62050 48.38958 8486 ft 272 kts 133°
2026-05-07 17:45 55.60741 48.41326 8164 ft 271 kts 133°
2026-05-07 17:45 55.59446 48.43663 7946 ft 263 kts 133°
2026-05-07 17:46 55.58173 48.45950 7939 ft 258 kts 133°
2026-05-07 17:46 55.57035 48.48435 7966 ft 268 kts 113°
2026-05-07 17:46 55.56612 48.51580 7998 ft 261 kts 84°
2026-05-07 17:46 55.57011 48.54621 7347 ft 258 kts 61°
2026-05-07 17:47 55.57774 48.57465 6729 ft 255 kts 65°
2026-05-07 17:47 55.58379 48.60341 6166 ft 249 kts 69°
2026-05-07 17:47 55.59010 48.63112 6060 ft 250 kts 57°
2026-05-07 17:47 55.59978 48.65776 5894 ft 256 kts 56°
2026-05-07 17:48 55.60867 48.68345 5688 ft 248 kts 58°
2026-05-07 17:48 55.61740 48.70952 5438 ft 245 kts 58°
2026-05-07 17:48 55.62589 48.73528 5191 ft 244 kts 59°
2026-05-07 17:48 55.63439 48.76140 4939 ft 244 kts 59°
2026-05-07 17:49 55.64291 48.78774 4598 ft 245 kts 60°
2026-05-07 17:49 55.65120 48.81350 4254 ft 241 kts 60°
2026-05-07 17:49 55.65940 48.83907 3883 ft 238 kts 60°
2026-05-07 17:49 55.66761 48.86475 3540 ft 236 kts 60°
2026-05-07 17:50 55.67567 48.88996 3194 ft 235 kts 61°
2026-05-07 17:50 55.68371 48.91518 2881 ft 232 kts 61°
2026-05-07 17:50 55.69153 48.93974 2669 ft 228 kts 61°
2026-05-07 17:50 55.69932 48.96423 2666 ft 228 kts 61°
2026-05-07 17:51 55.70582 48.98975 2659 ft 231 kts 79°
2026-05-07 17:51 55.70545 49.01717 2657 ft 217 kts 105°
2026-05-07 17:51 55.69856 49.03983 2655 ft 204 kts 123°
2026-05-07 17:51 55.69076 49.05988 2674 ft 189 kts 121°
2026-05-07 17:52 55.68378 49.07831 2679 ft 174 kts 121°
2026-05-07 17:52 55.67668 49.09695 2476 ft 186 kts 121°
2026-05-07 17:52 55.66948 49.11570 2228 ft 184 kts 121°
2026-05-07 17:52 55.66237 49.13413 1982 ft 179 kts 121°
2026-05-07 17:53 55.65539 49.15221 1745 ft 175 kts 121°
2026-05-07 17:53 55.64877 49.16931 1507 ft 161 kts 121°
2026-05-07 17:53 55.64272 49.18493 1295 ft 147 kts 121°
2026-05-07 17:53 55.63728 49.19895 1135 ft 128 kts 121°
2026-05-07 17:54 55.63251 49.21128 956 ft 120 kts 121°
2026-05-07 17:54 55.62740 49.22456 828 ft 141 kts 122°
2026-05-07 17:54 55.62160 49.23924 621 ft 145 kts 123°
2026-05-07 17:54 55.61612 49.25330 427 ft 133 kts 122°
2026-05-07 17:55 55.61147 49.26541 421 ft 96 kts 124°
2026-05-07 17:55 55.60831 49.27362 421 ft 71 kts 123°
2026-05-07 17:55 55.60563 49.28042 421 ft 64 kts 124°
2026-05-07 17:55 55.60389 49.28497 420 ft 16 kts 116°
2026-05-07 17:56 55.60421 49.28608 420 ft 10 kts 37°
2026-05-07 17:56 55.60486 49.28692 420 ft 6 kts 35°
2026-05-07 17:56 55.60494 49.28702 420 ft 3 kts 35°
2026-05-07 17:56 55.60495 49.28703 420 ft 0 kts 35°
2026-05-07 17:57 55.60498 49.28708 420 ft 2 kts 35°
2026-05-07 17:57 55.60503 49.28713 420 ft 0 kts 35°
2026-05-07 17:58 55.60518 49.28732 420 ft 6 kts 35°
2026-05-07 17:58 55.60563 49.28790 420 ft 8 kts 43°
2026-05-07 17:58 55.60581 49.28883 420 ft 8 kts 90°
2026-05-07 17:58 55.60578 49.28985 420 ft 8 kts 92°
2026-05-07 17:59 55.60579 49.29090 420 ft 9 kts 80°
2026-05-07 17:59 55.60623 49.29199 420 ft 12 kts 33°
2026-05-07 17:59 55.60700 49.29291 420 ft 13 kts 33°
2026-05-07 17:59 55.60775 49.29379 420 ft 8 kts 34°
2026-05-07 18:00 55.60810 49.29441 420 ft 6 kts 68°
2026-05-07 18:00 55.60798 49.29518 420 ft 7 kts 123°
2026-05-07 18:00 55.60769 49.29594 420 ft 7 kts 124°
2026-05-07 18:00 55.60742 49.29664 420 ft 3 kts 115°
2026-05-07 18:01 55.60748 49.29709 421 ft 4 kts 52°
2026-05-07 18:01 55.60775 49.29747 420 ft 3 kts 34°
2026-05-07 18:01 55.60783 49.29757 420 ft 0 kts 34°